Change the Weather History Date:

Wednesday, April 3, 2013

  Actual Average Record
Temperature  
Mean Temperature 55 °F 47 °F  
Max Temperature 70 °F 60 °F 77 °F (1992)
Min Temperature 39 °F 35 °F 20 °F (1936)
Degree Days  
Heating Degree Days 10 18  
Month to date heating degree days 26 54  
Since 1 July heating degree days 5359 5644  
Cooling Degree Days 0 0  
Month to date cooling degree days 0 0  
Year to date cooling degree days 0 0  
Growing Degree Days 5 (Base 50)    
Moisture  
Dew Point 33 °F    
Average Humidity 48    
Maximum Humidity 70    
Minimum Humidity 25    
Precipitation  
Precipitation 0.00 in 0.04 in 0.27 in (1948)
Month to date precipitation 0.00 0.10  
Year to date precipitation 1.56 4.26  
Sea Level Pressure  
Sea Level Pressure 30.02 in    
Wind  
Wind Speed 8 mph (WNW)    
Max Wind Speed 17 mph    
Max Gust Speed 22 mph    
Visibility 10 miles    
Events      
T = Trace of Precipitation, MM = Missing Value Source: NWS Daily Summary

Daily Weather History Graph

Daily Weather History Graph

Search for Another Location

Airport or City:

Trip Planner

Search our weather history database for the weather conditions in past years. The results will help you decide how hot, cold, wet, or windy it might be!

Date:

Astronomy

Apr. 03, 2013 Rise Set
Actual Time 6:31 AM PDT 7:32 PM PDT
Civil Twilight 5:59 AM PDT 8:04 PM PDT
Nautical Twilight 5:21 AM PDT 8:42 PM PDT
Astronomical Twilight 4:40 AM PDT 9:23 PM PDT
Moon 2:46 AM PDT (4/3) 12:20 PM PDT (4/3)
Length of Visible Light 14h 04m
Length of Day
13h 00m
Last Quarter, 43% of the Moon is Illuminated
Apr 3
Last Quarter
Apr 10
New
Apr 18
First Quarter
Apr 25
Full
May 2
Last Quarter

Hourly Weather History & Observations

Time (PDT) Temp. Windchill Dew Point Humidity Pressure Visibility Wind Dir Wind Speed Gust Speed Precip Events Conditions
12:53 AM 46.9 °F - 30.9 °F 54% 30.01 in 10.0 mi WNW 5.8 mph - N/A   Clear
1:53 AM 48.0 °F - 30.0 °F 50% 30.02 in 10.0 mi NNW 8.1 mph - N/A   Clear
2:53 AM 42.1 °F 38.4 °F 30.0 °F 62% 30.04 in 10.0 mi NNW 5.8 mph - N/A   Clear
3:53 AM 41.0 °F 37.1 °F 30.0 °F 65% 30.04 in 10.0 mi NNW 5.8 mph - N/A   Clear
4:53 AM 42.1 °F 39.2 °F 30.9 °F 65% 30.06 in 10.0 mi North 4.6 mph - N/A   Clear
5:53 AM 44.1 °F 39.0 °F 30.9 °F 60% 30.07 in 10.0 mi NW 9.2 mph - N/A   Clear
6:53 AM 41.0 °F 35.8 °F 32.0 °F 70% 30.09 in 10.0 mi NNW 8.1 mph - N/A   Clear
7:53 AM 48.9 °F - 35.1 °F 59% 30.09 in 10.0 mi North 4.6 mph - N/A   Clear
8:53 AM 54.0 °F - 35.1 °F 49% 30.09 in 10.0 mi NNW 9.2 mph - N/A   Clear
9:53 AM 57.0 °F - 34.0 °F 42% 30.09 in 10.0 mi North 9.2 mph 16.1 mph N/A   Clear
10:53 AM 61.0 °F - 33.1 °F 35% 30.07 in 10.0 mi North 15.0 mph 19.6 mph N/A   Clear
11:53 AM 64.0 °F - 34.0 °F 33% 30.06 in 10.0 mi North 10.4 mph - N/A   Clear
12:53 PM 64.9 °F - 33.1 °F 31% 30.04 in 10.0 mi ENE 3.5 mph - N/A   Clear
1:53 PM 66.0 °F - 30.9 °F 27% 30.03 in 10.0 mi South 5.8 mph - N/A   Clear
2:53 PM 66.0 °F - 33.1 °F 29% 30.03 in 10.0 mi South 6.9 mph - N/A   Clear
3:53 PM 69.1 °F - 32.0 °F 25% 29.99 in 10.0 mi SSW 10.4 mph - N/A   Clear
4:53 PM 69.1 °F - 33.1 °F 26% 29.98 in 10.0 mi South 10.4 mph - N/A   Clear
5:53 PM 66.9 °F - 33.1 °F 28% 29.98 in 10.0 mi South 6.9 mph - N/A   Clear
6:53 PM 64.9 °F - 33.1 °F 31% 29.97 in 10.0 mi SSE 6.9 mph - N/A   Clear
7:53 PM 60.1 °F - 34.0 °F 38% 29.96 in 10.0 mi South 9.2 mph - N/A   Clear
8:53 PM 59.0 °F - 36.0 °F 42% 29.97 in 10.0 mi South 8.1 mph - N/A   Clear
9:53 PM 57.0 °F - 36.0 °F 45% 29.97 in 10.0 mi SSW 8.1 mph - N/A   Clear
10:53 PM 53.1 °F - 36.0 °F 52% 29.98 in 10.0 mi West 6.9 mph - N/A   Clear
11:53 PM 52.0 °F - 36.0 °F 54% 29.97 in 10.0 mi West 4.6 mph - N/A   Clear